Weather History for KUNO - November, 2011

Change the Weather History Date:

Tuesday, November 22, 2011

  Actual Average Record
Temperature  
Mean Temperature 50 °F 44 °F  
Max Temperature 54 °F 54 °F 75 °F (1973)
Min Temperature 46 °F 34 °F 8 °F (1964)
Degree Days  
Heating Degree Days 15 21  
Month to date heating degree days 297 367  
Since 1 July heating degree days 630 670  
Cooling Degree Days 0 0  
Month to date cooling degree days 1 0  
Year to date cooling degree days 1555 1352  
Moisture  
Dew Point 48 °F    
Average Humidity 86    
Maximum Humidity 100    
Minimum Humidity 71    
Precipitation  
Precipitation 0.95 in 0.16 in 4.42 in (1963)
Month to date precipitation 5.20 3.32  
Year to date precipitation 53.72 41.32  
Sea Level Pressure  
Sea Level Pressure 29.91 in    
Wind  
Wind Speed 10 mph (NNW)    
Max Wind Speed 23 mph    
Max Gust Speed 29 mph    
Visibility 6 miles    
Events Rain    
T = Trace of Precipitation, MM = Missing Value Source: NWS Daily Summary

Daily Weather History Graph

Daily Weather History Graph

Search for Another Location

Airport or City:

Trip Planner

Search our weather history database for the weather conditions in past years. The results will help you decide how hot, cold, wet, or windy it might be!

Date:

Astronomy

Nov. 22, 2011 Rise Set
Actual Time 6:52 AM CST 4:54 PM CST
Civil Twilight 6:24 AM CST 5:22 PM CST
Nautical Twilight 5:53 AM CST 5:53 PM CST
Astronomical Twilight 5:22 AM CST 6:24 PM CST
Moon 3:46 AM CST (11/22) 2:51 PM CST (11/22)
Length of Visible Light 10h 57m
Length of Day
10h 01m
Waning Crescent, 9% of the Moon is Illuminated
Nov 22
Waning Crescent
Nov 25
New
Dec 2
First Quarter
Dec 10
Full
Dec 17
Last Quarter

Hourly Weather History & Observations

Time (CST) Temp. Windchill Dew Point Humidity Pressure Visibility Wind Dir Wind Speed Gust Speed Precip Events Conditions
12:44 AM 48.2 °F - 48.2 °F 100% 30.00 in 2.5 mi NNE 8.1 mph - 0.22 in Rain Heavy Rain
12:49 AM 48.2 °F - 48.2 °F 100% 29.99 in 3.0 mi NE 9.2 mph - 0.24 in Rain Heavy Rain
12:53 AM 48.0 °F - 48.0 °F 100% 29.99 in 3.0 mi NE 8.1 mph - 0.26 in Rain Heavy Rain
1:14 AM 48.2 °F - 48.2 °F 100% 29.97 in 2.0 mi NNE 9.2 mph - 0.12 in Rain Heavy Rain
1:53 AM 48.9 °F - 48.9 °F 100% 29.96 in 2.0 mi NNE 9.2 mph - 0.45 in Rain Heavy Rain
2:07 AM 48.2 °F - 48.2 °F 100% 29.94 in 3.0 mi ENE 9.2 mph - 0.07 in Rain Heavy Rain
2:50 AM 50.0 °F - 50.0 °F 100% 29.79 in 7.0 mi East 16.1 mph 28.8 mph 0.21 in Rain Light Rain
2:53 AM 50.0 °F - 50.0 °F 100% 29.79 in 9.0 mi East 18.4 mph 27.6 mph 0.21 in Rain Light Rain
3:41 AM 51.8 °F - 51.8 °F 100% 29.85 in 10.0 mi NNE 3.5 mph - 0.00 in   Overcast
3:53 AM 52.0 °F - 51.1 °F 97% 29.83 in 10.0 mi NE 5.8 mph - 0.00 in   Overcast
4:53 AM 51.1 °F - 51.1 °F 100% 29.80 in 3.0 mi NNE 5.8 mph - 0.01 in   Overcast
5:18 AM 51.8 °F - 51.8 °F 100% 29.81 in 3.0 mi NNE 4.6 mph - 0.01 in   Overcast
5:30 AM 51.8 °F - 51.8 °F 100% 29.79 in 3.0 mi ENE 5.8 mph - 0.01 in Rain Light Rain
5:36 AM 51.8 °F - 51.8 °F 100% 29.80 in 2.5 mi ENE 3.5 mph - 0.01 in   Overcast
5:53 AM 51.1 °F - 51.1 °F 100% 29.81 in 2.5 mi Calm Calm - 0.02 in   Overcast
6:10 AM 51.8 °F - 51.8 °F 100% 29.80 in 3.0 mi NW 4.6 mph - N/A   Overcast
6:17 AM 51.8 °F - 51.8 °F 100% 29.81 in 2.5 mi NW 5.8 mph - N/A   Overcast
6:43 AM 51.8 °F - 51.8 °F 100% 29.84 in 1.5 mi NW 4.6 mph - 0.01 in Rain Light Rain
7:07 AM 51.8 °F - 50.0 °F 94% 29.83 in 3.0 mi NW 5.8 mph - 0.00 in Rain Light Rain
7:28 AM 50.0 °F - 50.0 °F 100% 29.84 in 6.0 mi NNW 5.8 mph - 0.01 in   Overcast
7:35 AM 50.0 °F - 48.2 °F 94% 29.84 in 10.0 mi Variable 6.9 mph - 0.01 in   Overcast
7:53 AM 50.0 °F - 48.9 °F 96% 29.85 in 3.0 mi NNW 5.8 mph - 0.01 in   Overcast
7:56 AM 50.0 °F - 48.2 °F 94% 29.85 in 2.5 mi NNW 6.9 mph - N/A   Overcast
8:36 AM 50.0 °F - 48.2 °F 94% 29.87 in 5.0 mi NNW 11.5 mph - N/A   Overcast
8:53 AM 48.9 °F - 46.9 °F 93% 29.87 in 10.0 mi NNW 12.7 mph 18.4 mph N/A   Overcast
9:53 AM 48.0 °F - 46.0 °F 93% 29.89 in 10.0 mi NW 10.4 mph - N/A   Overcast
10:53 AM 48.0 °F - 45.0 °F 89% 29.90 in 10.0 mi NW 9.2 mph - N/A   Overcast
11:53 AM 48.9 °F - 45.0 °F 86% 29.89 in 10.0 mi NNW 10.4 mph - N/A   Overcast
12:53 PM 54.0 °F - 46.9 °F 77% 29.89 in 10.0 mi NW 10.4 mph 16.1 mph N/A   Mostly Cloudy
1:28 PM 53.6 °F - 46.4 °F 77% 29.89 in 10.0 mi NW 11.5 mph - N/A   Overcast
1:53 PM 52.0 °F - 46.0 °F 80% 29.90 in 10.0 mi NW 10.4 mph - N/A   Overcast
2:33 PM 51.8 °F - 46.4 °F 82% 29.91 in 10.0 mi WNW 8.1 mph 16.1 mph N/A   Overcast
2:53 PM 53.1 °F - 45.0 °F 74% 29.91 in 10.0 mi NW 11.5 mph - N/A   Overcast
4:53 PM 48.9 °F - 43.0 °F 80% 29.99 in 10.0 mi NW 9.2 mph - N/A   Overcast
5:53 PM 48.9 °F - 43.0 °F 80% 30.02 in 10.0 mi NW 13.8 mph 17.3 mph N/A   Overcast
6:53 PM 48.0 °F - 43.0 °F 83% 30.05 in 10.0 mi NW 10.4 mph - N/A   Overcast
7:53 PM 46.9 °F - 43.0 °F 86% 30.08 in 10.0 mi NW 10.4 mph - N/A   Overcast
9:07 PM 46.4 °F 41.5 °F 44.6 °F 93% 30.10 in 8.0 mi NW 10.4 mph - N/A   Overcast
9:53 PM 46.9 °F - 43.0 °F 86% 30.12 in 10.0 mi NW 11.5 mph 18.4 mph N/A   Overcast
10:53 PM 46.0 °F 41.0 °F 43.0 °F 89% 30.15 in 7.0 mi NW 10.4 mph - N/A   Overcast